Worcester, MA

6:15 AM EST on November 19, 2017 (GMT -0500)
Worcester Regional

Weather History for KORH - April, 2013

Change the Weather History Date:

Tuesday, April 9, 2013

  Actual Average Record
Temperature  
Mean Temperature 55 °F 44 °F  
Max Temperature 66 °F 52 °F 77 °F (1991)
Min Temperature 44 °F 35 °F 17 °F (1977)
Degree Days  
Heating Degree Days 10 21  
Month to date heating degree days 212 207  
Since 1 July heating degree days 5613 5983  
Cooling Degree Days 0 0  
Month to date cooling degree days 0 0  
Year to date cooling degree days 0 0  
Growing Degree Days 4 (Base 50)    
Moisture  
Dew Point 42 °F    
Average Humidity 69    
Maximum Humidity 100    
Minimum Humidity 37    
Precipitation  
Precipitation 0.09 in 0.15 in 1.48 in (2000)
Month to date precipitation 0.39 1.30  
Year to date precipitation 10.95 12.23  
Sea Level Pressure  
Sea Level Pressure 29.94 in    
Wind  
Wind Speed 11 mph (WSW)    
Max Wind Speed 28 mph    
Max Gust Speed 39 mph    
Visibility 7 miles    
Events Fog , Rain    
T = Trace of Precipitation, MM = Missing Value Source: NWS Daily Summary

Daily Weather History Graph

Daily Weather History Graph

Search for Another Location

Airport or City:

Trip Planner

Search our weather history database for the weather conditions in past years. The results will help you decide how hot, cold, wet, or windy it might be!

Date:

Astronomy

Apr. 09, 2013 Rise Set
Actual Time 6:16 AM EDT 7:22 PM EDT
Civil Twilight 5:47 AM EDT 7:51 PM EDT
Nautical Twilight 5:13 AM EDT 8:25 PM EDT
Astronomical Twilight 4:37 AM EDT 9:01 PM EDT
Moon 5:37 AM EDT (4/9) 6:55 PM EDT (4/9)
Length of Visible Light 14h 03m
Length of Day
13h 06m
Waning Crescent, 1% of the Moon is Illuminated
Apr 9
Waning Crescent
Apr 10
New
Apr 18
First Quarter
Apr 25
Full
May 2
Last Quarter

Hourly Weather History & Observations

Time (EDT) Temp. Windchill Dew Point Humidity Pressure Visibility Wind Dir Wind Speed Gust Speed Precip Events Conditions
12:54 AM 48.0 °F - 39.9 °F 74% 30.06 in 10.0 mi SE 6.9 mph - N/A   Mostly Cloudy
1:54 AM 46.0 °F 40.6 °F 39.0 °F 76% 30.03 in 10.0 mi SSE 11.5 mph - N/A   Mostly Cloudy
2:54 AM 45.0 °F 40.1 °F 39.0 °F 80% 29.99 in 10.0 mi SSE 9.2 mph - N/A   Overcast
3:54 AM 45.0 °F 40.6 °F 39.0 °F 80% 29.95 in 10.0 mi SE 8.1 mph - N/A   Scattered Clouds
4:54 AM 44.1 °F 41.5 °F 42.1 °F 93% 29.94 in 7.0 mi SSE 4.6 mph - 0.07 in Rain Light Rain
5:18 AM 44.1 °F 42.5 °F 42.1 °F 93% 29.95 in 7.0 mi NNW 3.5 mph - 0.01 in Rain Light Rain
5:26 AM 45.0 °F - 43.0 °F 93% 29.94 in 7.0 mi Calm Calm - 0.02 in Rain Light Rain
5:54 AM 44.1 °F 40.8 °F 43.0 °F 96% 29.93 in 7.0 mi SSE 5.8 mph - 0.02 in   Overcast
6:26 AM 44.1 °F 40.8 °F 43.0 °F 96% 29.91 in 2.5 mi South 5.8 mph - N/A   Overcast
6:38 AM 44.1 °F 40.8 °F 43.0 °F 96% 29.92 in 2.5 mi SSW 5.8 mph - N/A   Overcast
6:54 AM 44.1 °F 40.1 °F 43.0 °F 96% 29.93 in 2.0 mi SW 6.9 mph - N/A   Overcast
6:58 AM 45.0 °F 40.6 °F 43.0 °F 93% 29.91 in 0.8 mi SSW 8.1 mph - N/A   Overcast
7:08 AM 45.0 °F 39.7 °F 44.1 °F 97% 29.91 in 0.2 mi SW 10.4 mph - N/A Fog Fog
7:54 AM 46.0 °F 40.6 °F 46.0 °F 100% 29.91 in 0.2 mi SW 11.5 mph - N/A Fog Fog
8:19 AM 48.0 °F - 46.9 °F 96% 29.89 in 0.8 mi WSW 11.5 mph - N/A   Mist
8:26 AM 48.0 °F - 46.9 °F 96% 29.89 in 1.5 mi WSW 12.7 mph - N/A   Overcast
8:35 AM 48.0 °F - 48.0 °F 100% 29.88 in 2.5 mi WSW 11.5 mph - N/A   Overcast
8:47 AM 50.0 °F - 48.9 °F 96% 29.88 in 4.0 mi WSW 12.7 mph - N/A   Mostly Cloudy
8:54 AM 50.0 °F - 48.9 °F 96% 29.88 in 6.0 mi WSW 12.7 mph - N/A   Scattered Clouds
9:54 AM 57.9 °F - 48.9 °F 72% 29.87 in 10.0 mi West 13.8 mph - N/A   Clear
10:54 AM 60.1 °F - 48.0 °F 64% 29.90 in 10.0 mi WNW 20.7 mph 32.2 mph N/A   Clear
11:54 AM 62.1 °F - 44.1 °F 52% 29.90 in 10.0 mi West 21.9 mph 33.4 mph N/A   Partly Cloudy
12:54 PM 64.0 °F - 42.1 °F 45% 29.90 in 10.0 mi WNW 24.2 mph 32.2 mph N/A   Clear
1:54 PM 64.9 °F - 39.9 °F 40% 29.91 in 10.0 mi West 19.6 mph 31.1 mph N/A   Clear
2:54 PM 64.9 °F - 39.9 °F 40% 29.94 in 10.0 mi West 17.3 mph 26.5 mph N/A   Clear
3:54 PM 64.9 °F - 39.9 °F 40% 29.94 in 10.0 mi WNW 11.5 mph 20.7 mph N/A   Clear
4:54 PM 64.0 °F - 37.9 °F 38% 29.95 in 10.0 mi WNW 15.0 mph - N/A   Clear
5:54 PM 62.1 °F - 37.9 °F 41% 29.98 in 10.0 mi WNW 11.5 mph 19.6 mph N/A   Clear
6:54 PM 59.0 °F - 36.0 °F 42% 29.99 in 10.0 mi NW 5.8 mph - N/A   Clear
7:54 PM 57.0 °F - 37.0 °F 47% 30.01 in 10.0 mi WNW 4.6 mph - N/A   Clear
8:54 PM 54.0 °F - 37.0 °F 53% 30.04 in 10.0 mi West 5.8 mph - N/A   Clear
9:54 PM 53.1 °F - 37.9 °F 57% 30.02 in 10.0 mi WNW 4.6 mph - N/A   Partly Cloudy
10:54 PM 55.0 °F - 37.9 °F 53% 29.99 in 10.0 mi NE 3.5 mph - N/A   Mostly Cloudy
11:54 PM 53.1 °F - 37.9 °F 57% 29.95 in 10.0 mi East 4.6 mph - N/A   Overcast